This demonstration page uses our WeatherBlox Daily Observations layout. Learn more.

Left ArrowRight Arrow

Hourly Observations for June 6, 2016

Temp ( °F °C ) Dew Point ( °F °C ) Humidity (%) Winds ( mph kmh ) Pressure ( in mb ) Visibility ( mi km ) Precip ( " mm )
12:52 am 00:52 Clear 59 15 55 12.8 87 87 Calm 29.91 1013 10 16 0.00 0.00
1:52 am 01:52 Clear 58 14.4 54 12.2 87 87 Calm 29.91 1013 10 16 0.00 0.00
2:52 am 02:52 Clear 59 15 54 12.2 83 83 S 3 6 29.91 1013 10 16 0.00 0.00
3:52 am 03:52 Clear 57 13.9 52 11.1 83 83 Calm 29.90 1013 10 16 0.00 0.00
4:52 am 04:52 Clear 57 13.9 52 11.1 83 83 S 3 6 29.90 1012 10 16 0.00 0.00
5:52 am 05:52 Clear 55 12.8 51 10.6 87 87 S 3 6 29.91 1013 10 16 0.00 0.00
6:52 am 06:52 Sunny 62 16.7 55 12.8 78 78 WSW 6 9 29.91 1013 10 16 0.00 0.00
7:52 am 07:52 Sunny 69 20.6 56 13.3 63 63 W 7 11 29.91 1013 10 16 0.00 0.00
8:52 am 08:52 Sunny 73 22.8 57 13.9 57 57 W 7 11 29.92 1013 10 16 0.00 0.00
9:52 am 09:52 Sunny 76 24.4 58 14.4 54 54 WNW 7 11 29.92 1013 10 16 0.00 0.00
10:52 am 10:52 Sunny 78 25.6 57 13.9 48 48 WNW 8 13 29.91 1013 10 16 0.00 0.00
11:52 am 11:52 Sunny 80 26.7 56 13.3 44 44 WNW 8 13 29.90 1013 10 16 0.00 0.00
12:52 pm 12:52 Sunny 83 28.3 56 13.3 40 40 NNW 8 13 29.89 1012 10 16 0.00 0.00
1:52 pm 13:52 Sunny 85 29.4 55 12.8 36 36 NW 9 15 29.87 1012 10 16 0.00 0.00
2:52 pm 14:52 Sunny 85 29.4 54 12.2 35 35 undefined N/A 29.86 1011 10 16 0.00 0.00
3:52 pm 15:52 Sunny 86 30 56 13.3 36 36 VRB 7 11 29.85 1011 10 16 0.00 0.00
4:52 pm 16:52 Sunny 86 30 54 12.2 33 33 WNW 8 13 29.83 1010 10 16 0.00 0.00
5:52 pm 17:52 Sunny 85 29.4 55 12.8 36 36 WNW 8 13 29.83 1010 10 16 0.00 0.00
6:52 pm 18:52 Sunny 84 28.9 55 12.8 37 37 W 8 13 29.81 1010 10 16 0.00 0.00
7:52 pm 19:52 Sunny 81 27.2 58 14.4 45 45 W 5 7 29.81 1010 10 16 0.00 0.00
8:52 pm 20:52 Clear 73 22.8 59 15 62 62 SW 5 7 29.82 1010 10 16 0.00 0.00
9:52 pm 21:52 Clear 70 21.1 59 15 68 68 SW 7 11 29.83 1010 10 16 0.00 0.00
10:52 pm 22:52 Clear 70 21.1 58 14.4 66 66 SW 9 15 29.84 1011 10 16 0.00 0.00
11:52 pm 23:52 Clear 70 21.1 57 13.9 64 64 WSW 8 13 29.84 1011 10 16 0.00 0.00

Powered by AerisWeather